{"data":{"norad_id":69864,"intl_designator":"2026-155S","name":"QIANFAN-235","alt_names":[],"object_type":"PAYLOAD","status":"ACTIVE","operator":null,"country":"PRC","launch_date":"2026-07-05","launch_site_code":"WSC","launch_vehicle":null,"mission":null,"orbit_class":"UNKNOWN","rcs_meters":null,"size_class":null,"mass_kg":null,"dimensions":null,"purposes":[],"wikipedia_slug":null,"has_3d_model":false,"image_url":null,"decayed_at":null,"tle_current":{"epoch":"2026-09-19T20:05:00.701952Z","epoch_age_seconds":78960,"freshness":"FRESH","line1":"1 69864U 26155S   26262.83681368 -.01861903  00000+0 -17940+1 0  9993","line2":"2 69864  89.0086  53.5091 0029458  21.8127 338.4290 13.84271764 10797","mean_motion":13.84271764,"eccentricity":0.0029458,"inclination_deg":89.0086,"raan_deg":53.5091,"arg_perigee_deg":21.8127,"mean_anomaly_deg":338.429,"bstar":-1.794,"rev_number":1079,"period_min":104.02581613302,"perigee_km":927.19069200835,"apogee_km":970.35792266666,"semimajor_km":7326.9113073375,"source":"CELESTRAK","updated_at":"2026-09-20T09:00:25.160764Z"}}}